カタログに戻る

STARLINK-3120

運用中通信VLEO
NORAD 49419·PAYLOAD·🇺🇸 United States

打ち上げ Nov 13, 2021 から Cape Canaveral Space Force Station

Loading…

次のパス (今後24時間)

TLE

最新Source: CelesTrak SupGP

元期: Sep 14, 2026, 21:13 UTC

1 49419C 21104M   26257.88451389 -.00692560  00000+0 -19994-1 0  2572
2 49419  53.1591  88.3310 0001274  75.4964 138.2084 15.35463454    12

AllMySatでSTARLINK-3120をリアルタイム追跡

Download on the App Store